Stündliche Wetter Abstatt

Heute, 5 August, Donnerstag

Zeit Temperatur Niederschläge Wind Luftdruck Luftfeuchtigkeit
00:00 +13°C° 0 mm 0 m/S 736 mmHg 91%
01:00 +14°C° 0 mm 1 m/S 735 mmHg 93%
02:00 +14°C° 0 mm 1 m/S 735 mmHg 94%
03:00 +14°C° 0 mm 1 m/S 735 mmHg 95%
04:00 +13°C° 0 mm 1 m/S 735 mmHg 96%
05:00 +14°C° 0 mm 1 m/S 735 mmHg 94%
06:00 +15°C° 0 mm 1 m/S 735 mmHg 93%
07:00 +15°C° 0 mm 1 m/S 735 mmHg 93%
08:00 +18°C° 0.2 mm 1 m/S 735 mmHg 87%
09:00 +18°C° 0.2 mm 2 m/S 735 mmHg 82%
10:00 +19°C° 0.2 mm 2 m/S 735 mmHg 77%
11:00 +20°C° 0.4 mm 2 m/S 734 mmHg 73%
12:00 +21°C° 0.4 mm 2 m/S 734 mmHg 69%
13:00 +23°C° 0.4 mm 2 m/S 734 mmHg 65%
14:00 +23°C° 0.8 mm 2 m/S 733 mmHg 68%
15:00 +23°C° 0.8 mm 2 m/S 733 mmHg 71%
16:00 +21°C° 0.8 mm 2 m/S 733 mmHg 74%
17:00 +20°C° 1 mm 3 m/S 733 mmHg 80%
18:00 +19°C° 1 mm 3 m/S 733 mmHg 86%
19:00 +18°C° 1 mm 3 m/S 733 mmHg 92%
20:00 +17°C° 0.1 mm 2 m/S 733 mmHg 93%
21:00 +16°C° 0.1 mm 2 m/S 733 mmHg 95%
22:00 +15°C° 0.1 mm 1 m/S 733 mmHg 96%
23:00 +15°C° 0 mm 1 m/S 733 mmHg 96%

Morgen, 6 August, Freitag

Zeit Temperatur Niederschläge Wind Luftdruck Luftfeuchtigkeit
00:00 +15°C° 0 mm 1 m/S 733 mmHg 95%
01:00 +15°C° 0 mm 1 m/S 733 mmHg 95%
02:00 +15°C° 0 mm 1 m/S 732 mmHg 94%
03:00 +15°C° 0 mm 1 m/S 732 mmHg 94%
04:00 +15°C° 0 mm 1 m/S 732 mmHg 93%
05:00 +15°C° 0.7 mm 2 m/S 732 mmHg 94%
06:00 +15°C° 0.7 mm 2 m/S 732 mmHg 94%
07:00 +15°C° 0.7 mm 2 m/S 732 mmHg 95%
08:00 +17°C° 0.3 mm 3 m/S 732 mmHg 89%
09:00 +18°C° 0.3 mm 4 m/S 733 mmHg 84%
10:00 +20°C° 0.3 mm 5 m/S 733 mmHg 78%
11:00 +20°C° 0.2 mm 5 m/S 733 mmHg 71%
12:00 +21°C° 0.2 mm 6 m/S 733 mmHg 65%
13:00 +22°C° 0.2 mm 6 m/S 733 mmHg 58%
14:00 +22°C° 0.1 mm 6 m/S 733 mmHg 60%
15:00 +22°C° 0.1 mm 5 m/S 733 mmHg 61%
16:00 +22°C° 0.1 mm 5 m/S 733 mmHg 63%
17:00 +21°C° 0 mm 4 m/S 733 mmHg 68%
18:00 +20°C° 0 mm 3 m/S 733 mmHg 72%
19:00 +19°C° 0 mm 3 m/S 733 mmHg 77%
20:00 +18°C° 0 mm 2 m/S 733 mmHg 81%
21:00 +17°C° 0 mm 2 m/S 734 mmHg 85%
22:00 +16°C° 0 mm 1 m/S 734 mmHg 88%
23:00 +15°C° 0 mm 1 m/S 734 mmHg 89%

übermorgen, 7 August, Samstag

Zeit Temperatur Niederschläge Wind Luftdruck Luftfeuchtigkeit
00:00 +15°C° 0 mm 1 m/S 734 mmHg 91%
01:00 +15°C° 0 mm 1 m/S 734 mmHg 92%
02:00 +15°C° 0 mm 1 m/S 734 mmHg 92%
03:00 +14°C° 0 mm 1 m/S 733 mmHg 92%
04:00 +14°C° 0 mm 1 m/S 733 mmHg 93%
05:00 +15°C° 0 mm 1 m/S 733 mmHg 90%
06:00 +16°C° 0 mm 1 m/S 733 mmHg 87%
07:00 +18°C° 0 mm 1 m/S 732 mmHg 84%
08:00 +19°C° 0 mm 2 m/S 732 mmHg 77%
09:00 +20°C° 0 mm 2 m/S 731 mmHg 70%
10:00 +22°C° 0 mm 3 m/S 731 mmHg 63%
11:00 +25°C° 0 mm 2 m/S 731 mmHg 61%
12:00 +26°C° 0 mm 2 m/S 730 mmHg 58%
13:00 +27°C° 0 mm 1 m/S 730 mmHg 55%
14:00 +25°C° 0.6 mm 2 m/S 730 mmHg 66%
15:00 +22°C° 0.6 mm 4 m/S 730 mmHg 76%
16:00 +20°C° 0.6 mm 5 m/S 730 mmHg 87%
17:00 +19°C° 2.6 mm 4 m/S 731 mmHg 89%
18:00 +18°C° 2.6 mm 3 m/S 731 mmHg 91%
19:00 +16°C° 2.6 mm 2 m/S 732 mmHg 93%
20:00 +16°C° 1.3 mm 2 m/S 732 mmHg 94%
21:00 +16°C° 1.3 mm 2 m/S 733 mmHg 96%
22:00 +15°C° 1.3 mm 1 m/S 733 mmHg 97%
23:00 +15°C° 0.4 mm 2 m/S 733 mmHg 97%

8 August, Sonntag

Zeit Temperatur Niederschläge Wind Luftdruck Luftfeuchtigkeit
00:00 +15°C° 0.4 mm 2 m/S 734 mmHg 96%
01:00 +15°C° 0.4 mm 2 m/S 734 mmHg 96%
02:00 +15°C° 0 mm 2 m/S 734 mmHg 95%
03:00 +15°C° 0 mm 2 m/S 734 mmHg 94%
04:00 +15°C° 0 mm 2 m/S 734 mmHg 93%
05:00 +15°C° 0.1 mm 2 m/S 734 mmHg 92%
06:00 +16°C° 0.1 mm 2 m/S 735 mmHg 92%
07:00 +16°C° 0.1 mm 3 m/S 735 mmHg 91%
08:00 +17°C° 0.1 mm 3 m/S 735 mmHg 84%
09:00 +18°C° 0.1 mm 4 m/S 736 mmHg 76%
10:00 +19°C° 0.1 mm 5 m/S 736 mmHg 69%
11:00 +19°C° 0.1 mm 5 m/S 736 mmHg 68%
12:00 +19°C° 0.1 mm 6 m/S 737 mmHg 67%
13:00 +20°C° 0.1 mm 6 m/S 737 mmHg 65%
14:00 +20°C° 0.3 mm 5 m/S 737 mmHg 69%
15:00 +19°C° 0.3 mm 5 m/S 738 mmHg 72%
16:00 +19°C° 0.3 mm 5 m/S 738 mmHg 75%
17:00 +18°C° 0.4 mm 4 m/S 739 mmHg 79%
18:00 +17°C° 0.4 mm 3 m/S 739 mmHg 83%
19:00 +17°C° 0.4 mm 3 m/S 739 mmHg 87%
20:00 +16°C° 0 mm 2 m/S 740 mmHg 89%
21:00 +15°C° 0 mm 2 m/S 740 mmHg 91%
22:00 +14°C° 0 mm 2 m/S 740 mmHg 92%
23:00 +14°C° 0 mm 2 m/S 741 mmHg 92%

9 August, Montag

Zeit Temperatur Niederschläge Wind Luftdruck Luftfeuchtigkeit
00:00 +13°C° 0 mm 1 m/S 741 mmHg 92%
01:00 +13°C° 0 mm 1 m/S 741 mmHg 92%
02:00 +13°C° 0 mm 1 m/S 740 mmHg 92%
03:00 +13°C° 0 mm 1 m/S 740 mmHg 91%
04:00 +13°C° 0 mm 1 m/S 740 mmHg 90%
05:00 +14°C° 0 mm 1 m/S 740 mmHg 89%
06:00 +14°C° 0 mm 1 m/S 741 mmHg 87%
07:00 +15°C° 0 mm 1 m/S 741 mmHg 86%
08:00 +16°C° 0 mm 1 m/S 741 mmHg 79%
09:00 +18°C° 0 mm 1 m/S 741 mmHg 73%
10:00 +19°C° 0 mm 2 m/S 742 mmHg 66%
11:00 +20°C° 0 mm 2 m/S 742 mmHg 62%
12:00 +21°C° 0 mm 3 m/S 742 mmHg 58%
13:00 +22°C° 0 mm 4 m/S 742 mmHg 54%
14:00 +22°C° 0.1 mm 4 m/S 742 mmHg 57%
15:00 +22°C° 0.1 mm 4 m/S 742 mmHg 59%
16:00 +22°C° 0.1 mm 4 m/S 742 mmHg 61%
17:00 +21°C° 0.2 mm 3 m/S 742 mmHg 67%
18:00 +19°C° 0.2 mm 3 m/S 742 mmHg 73%
19:00 +18°C° 0.2 mm 2 m/S 742 mmHg 79%
20:00 +17°C° 0.1 mm 2 m/S 742 mmHg 81%
21:00 +16°C° 0.1 mm 1 m/S 743 mmHg 84%
22:00 +16°C° 0.1 mm 1 m/S 743 mmHg 86%
23:00 +15°C° 0 mm 1 m/S 743 mmHg 88%

10 August, Dienstag

Zeit Temperatur Niederschläge Wind Luftdruck Luftfeuchtigkeit
00:00 +14°C° 0 mm 1 m/S 743 mmHg 90%
01:00 +14°C° 0 mm 1 m/S 743 mmHg 91%
02:00 +14°C° 0 mm 1 m/S 743 mmHg 91%
03:00 +13°C° 0 mm 1 m/S 743 mmHg 91%
04:00 +13°C° 0 mm 1 m/S 743 mmHg 92%
05:00 +14°C° 0 mm 1 m/S 743 mmHg 90%
06:00 +14°C° 0 mm 1 m/S 743 mmHg 88%
07:00 +15°C° 0 mm 1 m/S 743 mmHg 87%
08:00 +18°C° 0 mm 1 m/S 743 mmHg 80%
09:00 +19°C° 0 mm 2 m/S 743 mmHg 73%
10:00 +20°C° 0 mm 2 m/S 743 mmHg 66%
11:00 +21°C° 0.1 mm 2 m/S 743 mmHg 62%
12:00 +22°C° 0.1 mm 3 m/S 743 mmHg 58%
13:00 +24°C° 0.1 mm 3 m/S 743 mmHg 54%
14:00 +24°C° 0 mm 3 m/S 743 mmHg 55%
15:00 +24°C° 0 mm 3 m/S 742 mmHg 57%
16:00 +24°C° 0 mm 3 m/S 742 mmHg 58%
17:00 +23°C° 0 mm 2 m/S 742 mmHg 63%
18:00 +22°C° 0 mm 1 m/S 742 mmHg 68%
19:00 +21°C° 0 mm 1 m/S 742 mmHg 72%
20:00 +20°C° 0 mm 1 m/S 742 mmHg 74%
21:00 +19°C° 0 mm 1 m/S 742 mmHg 77%
22:00 +18°C° 0 mm 1 m/S 742 mmHg 79%
23:00 +16°C° 0 mm 1 m/S 742 mmHg 80%
Mehr zeigen

Wir brauchen deine Erlaubnis

Meteoprog und unser Service Anbieter werden persönliche Daten aufbewahren, so wie Cookies, Geräte Bezeichnung oder ähnliche Technologien von deinem Gerät und Prozess, so wie Persönliche Daten Inhalte und Werbungen, genauso wie social Media und den Verkehr zu analysieren.

  • Aufbewahrung und/oder Zugang zu deiner Geräte Informationen.

    Cookies, Geräte Bezeichnung oder andere Informationen, können aufbewahrt oder Zugang zu deinem Gerät erhalten, für den Grund, der oben angegeben wird.

  • Personalisierte Werbung und Inhalte, Messungen, Einblick in das Publikum und Produkt Entwicklung.

    Werbungen und Inhalte können personalisiert werden, basierend auf ein Profil. Mehr Daten können besser personalisierte Werbungen und Inhalte hinzufügen. Werbung und Inhalte können gezeigt und gemessen werden. Einblicke über das Publikum, welche die Werbung gesehen haben und den Inhalt, können abgeleitet werden. So wie Daten können genutzt werden, um es zu verbessern oder die Benutzer Erfahrung zu verbessern das System und die Software.

Wenn du “Ich stimme zu” klickst, erlaubst du uns, die Cookies zu benutzen die Geräte Bezeichnung, den Web oder ähnliche Technologien zu benutzen. Deine Settings, können in deinem Gerät bei deinem Browser geändert werden.

Für den bestimmten Zweck, berechtigten Interessen beruhen darauf, mehr als auf den Inhalt. Du kannst mehr darüber in unseren Privaten und Cookie Politik lesen.